This is the latest recevied weather packets stored in our database for station/object W9GWP. If no packets are shown the sender has not sent any weather packets the latest 10 day(s).
| Time | Temp. | Humidity | Pressure | Rain* | Wind** | Luminosity | Snow |
|---|---|---|---|---|---|---|---|
| 1777400015 | 14.44° C | 67% | 1043.4 hPa | 0 mm | - | 510 W/m² | - |
| 1777399113 | 14.44° C | 67% | 1042.9 hPa | 0 mm | - | 864 W/m² | - |
| 1777398209 | 15° C | 66% | 1043 hPa | 0 mm | - | 327 W/m² | - |
| 1777397310 | 13.89° C | 71% | 1042.7 hPa | 0 mm | - | 344 W/m² | - |
| 1777396406 | 14.44° C | 70% | 1042.7 hPa | 0 mm | - | 303 W/m² | - |
| 1777395506 | 12.78° C | 70% | 1042.1 hPa | 0 mm | - | 712 W/m² | - |
| 1777394602 | 13.33° C | 70% | 1042.5 hPa | 0 mm | - | 773 W/m² | - |
| 1777393701 | 13.89° C | 69% | 1042.6 hPa | 0 mm | - | 948 W/m² | - |
| 1777392800 | 13.33° C | 71% | 1042.5 hPa | 0 mm | - | 213 W/m² | - |
| 1777391899 | 12.78° C | 74% | 1042.3 hPa | 0 mm | - | 502 W/m² | - |
| 1777391000 | 12.22° C | 73% | 1042.1 hPa | 0 mm | - | 582 W/m² | - |
| 1777390100 | 12.78° C | 73% | 1041.8 hPa | 0 mm | - | 588 W/m² | - |
| 1777389196 | 11.67° C | 74% | 1041.8 hPa | 0 mm | - | 247 W/m² | - |
| 1777388293 | 11.67° C | 76% | 1041.7 hPa | 0 mm | - | 226 W/m² | - |
| 1777387392 | 11.67° C | 77% | 1041.4 hPa | 0 mm | - | 159 W/m² | - |
| 1777386491 | 11.11° C | 78% | 1041.3 hPa | 0 mm | - | 161 W/m² | - |
| 1777385587 | 11.11° C | 80% | 1041 hPa | 0 mm | - | 170 W/m² | - |
| 1777384684 | 11.11° C | 81% | 1041.1 hPa | 0 mm | - | 99 W/m² | - |
| 1777383781 | 10.56° C | 81% | 1040.8 hPa | 0 mm | - | 87 W/m² | - |
| 1777382877 | 10.56° C | 82% | 1040.2 hPa | 0 mm | - | 73 W/m² | - |
| 1777381976 | 10.56° C | 82% | 1040 hPa | 0 mm | - | 56 W/m² | - |
| 1777381075 | 10.56° C | 82% | 1039.5 hPa | 0 mm | - | 61 W/m² | - |
| 1777380171 | 10° C | 83% | 1039 hPa | 0 mm | - | 42 W/m² | - |
| 1777379269 | 10° C | 84% | 1038.7 hPa | 0 mm | - | 24 W/m² | - |
| 1777378368 | 10° C | 84% | 1038.5 hPa | 0 mm | - | 17 W/m² | - |
* Rain latest hour (hover to see other rain measurements)
** Current wind speed in m/s (hover to see current wind gust speed)